Regional Weather Roundup
Issued by NWS

Home | Current Version | Previous Version | Graphics & Text | Print | Product List | Glossary On
Versions: 1 2 3 4 5 6 7 8 9 10 11 12 13 14 15 16 17 18 19 20 21 22 23 24 25 26 27 28 29 30 31 32 33 34 35 36 37 38 39 40 41 42 43 44 45 46 47 48 49 50
000
ASUS43 KDTX 220901
RWRMI
MICHIGAN HOURLY REGIONAL WEATHER ROUNDUP
NATIONAL WEATHER SERVICE DETROIT/PONTIAC MI
500 AM EDT FRI AUG 22 2014

NOTE: "FAIR" INDICATES FEW OR NO CLOUDS BELOW 12,000 FEET WITH NO
SIGNIFICANT WEATHER AND/OR OBSTRUCTION TO VISIBILITY.

MIZ047>049-052>055-059>063-066>070-074>076-081>083-221000-
SOUTHEAST LOWER MICHIGAN

CITY           SKY/WX    TMP DP  RH WIND       PRES   REMARKS
ADRIAN         CLOUDY    71  70  96 S5        29.96R FOG
ALMA           MOCLDY    65  63  96 E3        29.95S FOG
ANN ARBOR      CLOUDY    71  69  93 E3        29.95S FOG
BAD AXE        FOG       55  55 100 CALM      29.97F VSB 1/2
CARO           CLOUDY    65  64  95 NE3       29.96S
DETROIT CITY   PTCLDY    69  65  86 CALM      29.95R
DETROIT        CLOUDY    70  68  93 NE3       29.95S FOG
FLINT          MOCLDY    68  63  84 E3        29.95F
GROSSE ILE     CLOUDY    70  66  88 NE3       29.93S FOG
HILLSDALE      FOG       69  69 100 CALM      29.97R VSB 1/2
HOWELL         CLOUDY    69  68  98 E5        29.95S FOG

CITY           SKY/WX    TMP DP  RH WIND       PRES   REMARKS
JACKSON        FOG       67  65  93 CALM      29.95R VSB 1/4
LAMBERTVILLE   CLOUDY    72  68  88 S5        29.95S
LANSING        FOG       71  69  93 SE3       29.95R VSB 1
LAPEER         CLOUDY    65  64  93 CALM      29.97S
MASON          FOG       69  69  98 CALM      29.95R VSB 1/4
MONROE         MOCLDY    70  68  94 CALM      29.93S FOG
MT. CLEMENS    PTCLDY    66  63  90 NW6       29.94S
PONTIAC        PTCLDY    67  63  87 NE3       29.94F
PORT HOPE        N/A     65  63  93 NE8       29.96F
PORT HURON     MOCLDY    66  64  94 CALM      29.95S
TRI CITIES     MOCLDY    67  64  90 NE6       29.96S
TROY           MOCLDY    68  65  90 NE3       29.96S
SAGINAW HB     CLOUDY    66  66 100 E3        29.95S
$$
MIZ043>046-050>051-056>058-064>065-071>073-077>080-221000-
SOUTHWEST LOWER MICHIGAN

CITY           SKY/WX    TMP DP  RH WIND       PRES   REMARKS
BATTLE CREEK   CLOUDY    72  69  90 E5        29.95R FOG
BENTON HARBOR  MOCLDY    68  67  96 CALM      29.93R
BIG RAPIDS     CLOUDY    66  66 100 NE3       29.95S
COLDWATER      FOG       70  68  96 CALM      29.95R VSB 1/2
FREMONT        CLOUDY    69  68  99 E5        29.92F
HOLLAND        FOG       70  68  93 CALM      29.93R VSB 1/4
GRAND RAPIDS   PTCLDY    70  70 100 E3        29.94S FOG
IONIA          CLOUDY    66  66  97 CALM      29.94R FOG
KALAMAZOO      FOG       70  68  93 CALM      29.95R VSB 1/4
LUDINGTON      PTCLDY    69  69  98 CALM      29.92S FOG
MARSHALL       CLOUDY    67  67 100 CALM      29.94R FOG
MOUNT PLEASANT MOCLDY    64  63  97 CALM      29.95S FOG
MUSKEGON       MOCLDY    70  68  93 SE6       29.91F FOG
SOUTH HAVEN    FOG       69  69 100 CALM      29.93R VSB 1/2
$$
MIZ016>042-221000-
NORTHERN LOWER MICHIGAN

CITY           SKY/WX    TMP DP  RH WIND       PRES   REMARKS
ALPENA         CLOUDY    57  57 100 CALM      29.98F
BEAVER ISLAND  CLOUDY    65  65  97 E3        29.95F
BELLAIRE       CLOUDY    66  64  91 CALM      29.93F
CADILLAC       CLOUDY    65  64  98 E3        29.96F
CHARLEVOIX     CLOUDY    68  67  96 E5        29.97F
FRANKFORT      CLOUDY    67  63  89 CALM      29.92F
GAYLORD        CLOUDY    65  62  90 CALM      29.98F
GRAYLING       MOCLDY    65  65 100 E5        29.98F
HARBOR SPRINGS RAIN      65  64  94 NE5       29.96F
HOUGHTON LAKE  PTCLDY    61  60  97 E5        29.97F
MANISTEE       CLEAR     66  64  94 E5        29.92F
OSCODA         MOCLDY    58  58 100 CALM      29.96F
PELLSTON       CLOUDY    62  61  96 CALM      29.97F
ROGERS CITY    CLOUDY    60  60 100 CALM      29.99F FOG
TRAVERSE CITY  CLOUDY    68  64  87 CALM      29.93F
$$
MIZ007>008-015-221000-
EASTERN UPPER MICHIGAN

CITY           SKY/WX    TMP DP  RH WIND       PRES   REMARKS
KINROSS        MOCLDY    59  59 100 CALM      29.98S VSB 3/4
MACKINAC ISLAN MOCLDY    61  61 100 E3        29.97F
NEWBERRY       FOG       55  55 100 CALM      29.97S VSB 1/2
S. S. MARIE    FOG       60  59  96 CALM      29.98R VSB 1/4
$$
MIZ004>006-011>014-085-221000-
CENTRAL UPPER MICHIGAN

CITY           SKY/WX    TMP DP  RH WIND       PRES   REMARKS
MANISTIQUE     MOCLDY    62  60  95 CALM      29.95S
ESCANABA       CLOUDY    64  59  82 NE3       29.93F
MENOMINEE      CLOUDY    66  63  88 E6        29.90F
SAWYER-GWINN   CLOUDY    64  60  84 SE5       29.96F
$$
MIZ001>003-009>011-084-221000-
WESTERN UPPER MICHIGAN

CITY           SKY/WX    TMP DP  RH WIND       PRES   REMARKS
IRON MOUNTAIN  CLOUDY    63  61  93 E5        29.93F
HOUGHTON       CLOUDY    59  57  93 E7        29.94S
COPPER HARBOR    N/A     60  57  89 CALM      29.94F
IRONWOOD       CLOUDY    66  64  94 SE5       29.88F
$$

ABBREVIATIONS USED IN REMARKS
   TC - TEMPERATURE IN CELSIUS
  WCI - WIND CHILL INDEX
   HX - HEAT INDEX
  VSB - VISIBILITY



USA.gov is the U.S. government's official web portal to all federal, state and local government web resources and services.